Zurück zum Katalog

ATLAS 1 CENTAUR R/B

AktivGTO
NORAD 21907·ROCKET BODY·🇺🇸 United States

Gestartet Mar 14, 1992 von Cape Canaveral Space Force Station

Loading…

TLE

AlterndSource: Space-Track

Epoche: Sep 14, 2026, 06:54 UTC

1 21907U 92013B   26257.28807770 -.00000116  00000-0  00000-0 0  9994
2 21907  19.4802 270.3471 6943625 316.0709 293.4930  2.25609812284436

Verfolge ATLAS 1 CENTAUR R/B in Echtzeit mit AllMySat

Download on the App Store